Location: ??????????
(48.4699°N, 37.9573°E)
Time: 01:49:20
(UTC+00:00)

CZ-4 R/B - Pass Details

Date: 20 January 2021
Orbit: 530 x 599 km, 97.7° (Epoch: 24 February)

Event Time Altitude Azimuth Distance (km) Brightness Sun altitude
Rises 16:14:32 0° 175° (S) 2,802 5.0 -20.5°
Reaches altitude 10° 16:16:44 10° 180° (S) 1,897 4.1 -20.9°
Maximum altitude 16:20:47 57° 259° (W) 683 2.0 -21.6°
Drops below altitude 10° 16:24:47 10° 339° (NNW) 1,873 4.2 -22.2°
Sets 16:26:56 0° 343° (NNW) 2,762 5.0 -22.6°
